Location: Chenereilles
(45.4866°N, 4.0790°E)
Time: 15:24:16
(UTC+00:00)

ERBS - Pass Details

Date: 12 November 2019
Orbit: 411 x 430 km, 57.0° (Epoch: 08 December)

Event Time Altitude Azimuth Distance (km) Brightness Sun altitude
Rises 17:39:27 0° 185° (S) 2,331 6.2 -14.6°
Reaches altitude 10° 17:42:12 10° 159° (SSE) 1,477 4.9 -15.0°
Enters shadow 17:43:13 13° 142° (SE) 1,297 4.4 -15.2°
